Home   Weather   Burbank   Past weeks

Flag for USA Past Weather in Burbank, California, USA — Yesterday and Last 2 Weeks

Now
99 °F

Sunny.


Feels Like: 94 °F
Forecast: 69 / 97 °F
Wind: 8 mph from West

Location: Bob Hope Airport

Current Time: Sep 26, 2016 at 1:57:10 PM

Latest Report: Sep 26, 2016 at 12:53 PM


Visibility: 10 mi

Pressure: 29.88 "Hg

Humidity: 9%

Dew Point: 32 °F

Location of BurbankLocation

Past Weather in Burbank — Graph

°F

Burbank Temperature Yesterday

Maximum temperature yesterday: 99 °F (at 1:53 PM)
Minimum temperature yesterday: 65 °F (at 4:53 AM)
Average temperature yesterday: 82 °F

High & Low Weather Summary for the Past Weeks

 TemperatureHumidityPressure
High101 °F (Sep 18, 1:53 PM)90% (Sep 12, 1:53 AM)30.05 "Hg (Sep 12, 1:53 AM)
Low54 °F (Sep 14, 5:53 AM)4% (Sep 25, 5:53 PM)29.78 "Hg (Sep 21, 4:53 PM)
Average72 °F50%29.91 "Hg
* Reported Sep 11 11:53 AM — Sep 26 11:53 AM, Burbank, Weather by CustomWeather, © 2016

Note: Actual official high and low records may vary slightly from our data, if they occured in-between our weather recording intervals... More about our weather records

Advertising

Burbank Weather History for the Previous 24 Hours

Scroll right to see more
 ConditionsComfort  
Time TempWeatherWind HumidityBarometerVisibility
11:53 AM
Mon, Sep 26
98 °FSunny.No wind9%29.90 "Hg10 mi
10:53 AM93 °FSunny.3 mph13%29.93 "Hg10 mi
9:53 AM84 °FSunny.5 mph19%29.94 "Hg10 mi
8:53 AM80 °FSunny.No wind20%29.94 "Hg10 mi
7:53 AM72 °FSunny.No wind26%29.94 "Hg10 mi
6:53 AM68 °FSunny.No wind27%29.93 "Hg10 mi
5:53 AM69 °FClear.3 mph24%29.92 "Hg10 mi
4:53 AM70 °FClear.No wind25%29.91 "Hg10 mi
3:53 AM73 °FClear.3 mph18%29.90 "Hg10 mi
2:53 AM73 °FClear.6 mph19%29.91 "Hg10 mi
1:53 AM74 °FClear.5 mph22%29.92 "Hg10 mi
12:53 AM76 °FClear.No wind18%29.92 "Hg10 mi
11:53 PM
Sun, Sep 25
79 °FClear.5 mph19%29.92 "Hg10 mi
10:53 PM81 °FClear.7 mph18%29.91 "Hg10 mi
9:53 PM88 °FClear.7 mph10%29.90 "Hg10 mi
8:53 PM84 °FClear.No wind16%29.90 "Hg10 mi
7:53 PM88 °FClear.3 mph13%29.88 "Hg10 mi
6:53 PM91 °FClear.3 mph12%29.87 "Hg10 mi
5:53 PM98 °FSunny.8 mph4%29.85 "Hg10 mi
4:53 PM94 °FSunny.8 mph10%29.86 "Hg10 mi
3:53 PM95 °FSunny.9 mph9%29.88 "Hg10 mi
2:53 PM95 °FSunny.10 mph10%29.89 "Hg10 mi
1:53 PM99 °FSunny.9 mph6%29.90 "Hg10 mi
Weather by CustomWeather, © 2016

See weather overviewHow to use our weather pages